User: anonymous   Login
Location: Beccas
(43.4309°N, 0.1528°E)
Time: 05:52:37
(UTC+00:00)
Language:

CZ-4 R/B - Orbit

View from above orbital plane
View from above orbital plane
View from above satellite
View from above satellite

Ground track
Ground track

The orbit data is extracted from the following two-line orbital elements,

1 29507U 06046C   22024.52645884  .00000235  00000-0  22793-4 0  9998
2 29507  97.7498  55.1565 0045720 351.9997   8.0492 15.01299057833272
Epoch (UTC): 24 January 2022 12:38:06
Eccentricity: 0.0045720
inclination: 97.7498°
perigee height: 531 km
apogee height: 594 km
right ascension of ascending node: 55.1565°
argument of perigee: 351.9997°
revolutions per day: 15.01299057
mean anomaly at epoch: 8.0492°
orbit number at epoch: 83327

The dashed part of the orbit path shows where the satellite is in the earth's shadow,  

DLR